Location: Bakov nad Jizerou
(50.4784°N, 14.9394°E)
Time: 07:09:02
(UTC+00:00)

Cosmos 2123 Rocket - Pass Details

Date: 16 June 2021
Orbit: 961 x 992 km, 82.9° (Epoch: 28 July)

Event Time Altitude Azimuth Distance (km) Brightness Sun altitude
Exits shadow 21:34:04 - 201° (SSW) 2,862 6.0 -13.7°
Reaches altitude 10° 21:34:25 10° 202° (SSW) 2,736 5.9 -13.7°
Maximum altitude 21:40:39 64° 283° (WNW) 1,095 4.4 -14.0°
Drops below altitude 10° 21:46:58 10° 5° (N) 2,768 7.5 -14.3°
Sets 21:49:32 0° 9° (N) 3,721 8.3 -14.5°
